Location: Austin
(30.3000°N, 97.7500°W)
Time: 01:23:12
(UTC-05:00)

Cosmos 1812 - Pass Details

Date: 15 May 2024
Orbit: 471 x 472 km, 82.5° (Epoch: 29 May)

Event Time Altitude Azimuth Distance (km) Brightness Sun altitude
Exits shadow 21:37:00 - 195° (SSW) 2,461 6.0 -15.7°
Reaches altitude 10° 21:39:02 10° 201° (SSW) 1,626 5.1 -16.1°
Maximum altitude 21:42:29 50° 277° (W) 605 3.4 -16.7°
Drops below altitude 10° 21:45:58 10° 354° (N) 1,635 5.8 -17.3°
Sets 21:48:06 0° 360° (N) 2,516 6.7 -17.7°
